Location: Esp�s Alto
(42.4476°N, 0.5876°E)
Time: 08:42:33
(UTC+00:00)

Meteor 1-4 Rocket - Pass Details

Date: 22 October 2019
Orbit: 450 x 503 km, 81.2° (Epoch: 19 November)

Event Time Altitude Azimuth Distance (km) Brightness Sun altitude
Exits shadow 04:16:22 30° 14° (NNE) 846 3.9 -23.1°
Drops below altitude 10° 04:18:14 10° 12° (NNE) 1,594 5.4 -22.8°
Sets 04:20:19 0° 11° (N) 2,470 6.4 -22.4°
